Left ArrowRight Arrow

33.98154, -81.23621

Hourly Observations for December 31, 2018

Temp ( °F °C ) Dew Point ( °F °C ) Humidity (%) Winds ( mph kmh ) Pressure ( in mb ) Visibility ( mi km ) Precip ( " mm )
12:29 am 00:29 Mostly Cloudy with Fog 56 13.3 56 13.3 100 100 E 5 7 30.18 1022 1 1 0.00 0.00
12:56 am 00:56 Mostly Cloudy with Mist and Fog 56 13.3 56 13.3 100 100 ENE 3 6 30.18 1022 1 1 0.00 0.00
1:16 am 01:16 Mostly Cloudy with Mist and Fog 55 13 55 13 100 100 Calm 30.21 1023 1 2 0.00 0.00
1:39 am 01:39 Cloudy with Mist and Fog 56 13.3 56 13.3 100 100 E 3 6 30.18 1022 1 1 0.00 0.00
1:56 am 01:56 Mostly Cloudy with Mist and Fog 56 13.3 56 13.3 100 100 E 6 9 30.18 1022 1 1 0.00 0.00
2:56 am 02:56 Mostly Cloudy with Mist and Fog 56 13.3 56 13.3 100 100 E 5 7 30.19 1022 1 1 0.00 0.00
3:14 am 03:14 Mostly Cloudy with Fog 55 13 55 13 100 100 ESE 6 9 30.21 1023 1 1 0.00 0.00
3:56 am 03:56 Mostly Cloudy with Fog 56 13.3 56 13.3 100 100 E 6 9 30.16 1022 1 1 0.00 0.00
4:13 am 04:13 Mostly Cloudy with Mist and Fog 56 13.3 56 13.3 100 100 E 6 9 30.18 1022 1 1 0.00 0.00
4:22 am 04:22 Mostly Cloudy with Fog 55 13 55 13 100 100 E 6 9 30.21 1023 1 1 0.00 0.00
4:56 am 04:56 Mostly Cloudy with Light Rain 56 13.3 56 13.3 100 100 E 5 7 30.15 1021 1 1 0.01 0.25
5:48 am 05:48 Mostly Cloudy with Fog 55 13 55 13 100 100 SE 5 7 30.15 1021 0 0 0.00 0.00
5:56 am 05:56 Mostly Cloudy with Light Rain 56 13.3 56 13.3 100 100 SE 3 6 30.16 1021 0 0 0.00 0.03
6:06 am 06:06 Mostly Cloudy with Light Rain 55 13 55 13 100 100 ESE 5 7 30.15 1021 1 1 0.00 0.00
6:14 am 06:14 Mostly Cloudy with Light Rain 55 13 55 13 100 100 ESE 5 7 30.15 1021 1 2 0.00 0.00
6:21 am 06:21 Cloudy with Light Rain 56 13.3 56 13.3 100 100 ESE 3 6 30.18 1022 2 3 0.01 0.25
6:30 am 06:30 Cloudy with Mist and Fog 55 13 55 13 100 100 E 5 7 30.21 1023 4 6 0.00 0.00
6:56 am 06:56 Cloudy with Mist and Fog 56 13.3 56 13.3 100 100 E 3 6 30.17 1022 3 5 0.01 0.25
7:16 am 07:16 Cloudy with Mist and Fog 55 13 55 13 100 100 E 3 6 30.21 1023 3 4 0.00 0.00
7:26 am 07:26 Cloudy with Mist and Fog 56 13.3 56 13.3 100 100 SE 3 6 30.18 1022 1 1 0.00 0.00
7:33 am 07:33 Mostly Cloudy with Mist and Fog 56 13.3 56 13.3 100 100 ESE 3 6 30.18 1022 1 1 0.00 0.00
7:46 am 07:46 Mostly Cloudy with Fog 55 13 N/A N/A ESE 5 7 30.21 1023 1 1 0.00 0.00
7:48 am 07:48 Mostly Cloudy with Fog 55 13 N/A N/A ESE 5 7 30.21 1023 0 0 0.00 0.00
7:56 am 07:56 Mostly Cloudy with Fog 56 13.3 56 13.3 100 100 E 5 7 30.19 1022 0 0 0.00 0.00
8:56 am 08:56 Mostly Cloudy with Fog 57 13.9 57 13.9 100 100 Calm 30.20 1023 0 0 0.00 0.00
9:56 am 09:56 Mostly Cloudy with Fog 58 14.4 58 14.4 100 100 ESE 6 9 30.20 1023 0 0 0.00 0.00
10:20 am 10:20 Mostly Cloudy with Mist and Fog 59 15 59 15 100 100 ESE 6 9 30.18 1022 1 1 0.00 0.00
10:36 am 10:36 Cloudy with Mist and Fog 61 16 61 16 100 100 ESE 7 11 30.18 1022 1 2 0.00 0.00
10:56 am 10:56 Cloudy with Mist and Fog 61 16.1 61 16.1 100 100 SE 6 9 30.17 1022 2 3 0.00 0.00
11:02 am 11:02 Cloudy with Mist and Fog 61 16 61 16 100 100 SE 5 7 30.18 1022 3 4 0.00 0.00
11:26 am 11:26 Cloudy with Mist and Fog 63 17 63 17 100 100 S 8 13 30.15 1021 6 10 0.00 0.00
11:37 am 11:37 Cloudy with Mist and Fog 62 16.7 62 16.7 100 100 S 8 13 30.15 1021 6 10 0.00 0.00
11:56 am 11:56 Cloudy with Mist and Fog 63 17.2 63 17.2 100 100 S 6 9 30.14 1021 6 10 0.00 0.00
12:56 pm 12:56 Cloudy 66 18.9 66 18.9 100 100 S 10 17 30.11 1020 10 16 0.00 0.00
1:56 pm 13:56 Cloudy 67 19.4 66 18.9 97 97 S 10 17 30.09 1019 10 16 0.00 0.00
2:42 pm 14:42 Cloudy 66 19 66 19 100 100 S 8 13 30.06 1018 9 14 0.00 0.00
2:56 pm 14:56 Cloudy 68 20 67 19.4 96 96 S 7 11 30.07 1018 9 14 0.00 0.00
3:56 pm 15:56 Cloudy with Mist and Fog 67 19.4 67 19.4 100 100 SSW 8 13 30.07 1018 4 6 0.00 0.03
4:56 pm 16:56 Mostly Cloudy 67 19.4 67 19.4 100 100 S 7 11 30.06 1018 8 13 0.00 0.00
5:56 pm 17:56 Mostly Cloudy 67 19.4 67 19.4 100 100 S 6 9 30.06 1018 10 16 0.00 0.00
7:56 pm 19:56 Mostly Cloudy 66 18.9 66 18.9 100 100 ESE 6 9 30.06 1018 8 13 0.00 0.00
8:56 pm 20:56 Cloudy with Light Rain 67 19.4 67 19.4 100 100 SSE 8 13 30.07 1018 7 11 0.00 0.03
9:56 pm 21:56 Cloudy 68 20 68 20 100 100 S 8 13 30.06 1018 8 13 0.01 0.25
10:56 pm 22:56 Mostly Cloudy with Light Rain 68 20 68 20 100 100 S 10 17 30.04 1017 8 13 0.00 0.03
11:56 pm 23:56 Cloudy 68 20 67 19.4 96 96 SSW 8 13 30.04 1017 10 16 0.00 0.03

Powered by Vaisala Xweather